TimeEDT,TemperatureF,Dew PointF,Humidity,Sea Level PressureIn,VisibilityMPH,Wind Direction,Wind SpeedMPH,Gust SpeedMPH,PrecipitationIn,Events,Conditions,WindDirDegrees,DateUTC
12:51 AM,52.0,37.9,59,30.25,10.0,SSE,5.8,-,N/A,,Clear,160,2013-10-10 04:51:00
1:51 AM,54.0,37.0,53,30.23,10.0,SSE,12.7,-,N/A,,Clear,160,2013-10-10 05:51:00
2:51 AM,53.1,36.0,52,30.22,10.0,SSE,11.5,-,N/A,,Clear,150,2013-10-10 06:51:00
3:51 AM,52.0,36.0,54,30.22,10.0,SSE,11.5,-,N/A,,Clear,150,2013-10-10 07:51:00
4:51 AM,51.1,36.0,56,30.22,10.0,SSE,10.4,-,N/A,,Clear,150,2013-10-10 08:51:00
5:51 AM,50.0,36.0,59,30.24,10.0,ESE,3.5,-,N/A,,Clear,120,2013-10-10 09:51:00
6:51 AM,48.0,37.0,66,30.25,10.0,Calm,Calm,-,N/A,,Clear,0,2013-10-10 10:51:00
7:51 AM,45.0,37.9,76,30.27,10.0,Calm,Calm,-,N/A,,Clear,0,2013-10-10 11:51:00
8:51 AM,50.0,39.9,68,30.28,10.0,ENE,3.5,-,N/A,,Clear,60,2013-10-10 12:51:00
9:51 AM,54.0,39.9,59,30.27,10.0,SSE,4.6,-,N/A,,Clear,160,2013-10-10 13:51:00
10:51 AM,61.0,39.9,46,30.25,10.0,East,3.5,-,N/A,,Clear,90,2013-10-10 14:51:00
11:51 AM,64.0,41.0,43,30.23,10.0,NNE,9.2,-,N/A,,Clear,20,2013-10-10 15:51:00
12:51 PM,64.9,41.0,42,30.22,10.0,NNE,13.8,-,N/A,,Clear,30,2013-10-10 16:51:00
1:51 PM,64.9,45.0,48,30.19,10.0,NE,11.5,17.3,N/A,,Clear,50,2013-10-10 17:51:00
2:51 PM,63.0,46.9,56,30.19,10.0,NE,10.4,-,N/A,,Clear,50,2013-10-10 18:51:00
3:51 PM,63.0,48.0,58,30.18,10.0,NE,12.7,-,N/A,,Clear,40,2013-10-10 19:51:00
4:51 PM,63.0,48.9,60,30.17,10.0,NE,12.7,-,N/A,,Clear,40,2013-10-10 20:51:00
5:51 PM,63.0,48.9,60,30.17,10.0,NE,10.4,-,N/A,,Clear,40,2013-10-10 21:51:00
6:51 PM,60.1,50.0,69,30.16,10.0,NE,5.8,-,N/A,,Clear,40,2013-10-10 22:51:00
7:51 PM,57.9,48.0,70,30.16,10.0,Calm,Calm,-,N/A,,Clear,0,2013-10-10 23:51:00
8:51 PM,55.0,48.9,80,30.15,10.0,Calm,Calm,-,N/A,,Clear,0,2013-10-11 00:51:00
9:51 PM,55.0,46.9,74,30.14,10.0,Calm,Calm,-,N/A,,Clear,0,2013-10-11 01:51:00
10:51 PM,53.1,46.0,77,30.13,10.0,Calm,Calm,-,N/A,,Clear,0,2013-10-11 02:51:00
11:51 PM,51.1,45.0,80,30.13,10.0,Calm,Calm,-,N/A,,Clear,0,2013-10-11 03:51:00